Location: Al Mulaqqa?ah
(24.1833°N, 32.8833°E)
Time: 07:59:27
(UTC+00:00)

Fermi - Pass Details

Date: 26 September 2021
Orbit: 523 x 539 km, 25.6° (Epoch: 15 October)

Event Time Altitude Azimuth Distance (km) Brightness Sun altitude
Rises 16:46:34 0° 278° (W) 2,655 9.2 -15.9°
Reaches altitude 10° 16:48:51 10° 274° (W) 1,768 7.8 -16.4°
Maximum altitude 16:52:52 55° 196° (SSW) 642 4.1 -17.3°
Enters shadow 16:54:26 32° 135° (SE) 913 4.5 -17.6°
